Previsão horária em Abakaliki

Hoje, 29 Setembro, Terça-feira

Tempo Temperatura Precipitação Vento Pressão Humidade
00:00 +25°C° 1.4 mm 3 m/s 752 mmHg 94%
01:00 +25°C° 0 mm 3 m/s 752 mmHg 94%
02:00 +25°C° 1.5 mm 3 m/s 752 mmHg 95%
03:00 +25°C° 1.5 mm 3 m/s 752 mmHg 96%
04:00 +25°C° 1.5 mm 2 m/s 752 mmHg 97%
05:00 +25°C° 0.7 mm 2 m/s 752 mmHg 97%
06:00 +25°C° 0.7 mm 1 m/s 752 mmHg 97%
07:00 +25°C° 0 mm 1 m/s 753 mmHg 97%
08:00 +26°C° 0.3 mm 1 m/s 753 mmHg 94%
09:00 +26°C° 0.3 mm 2 m/s 754 mmHg 90%
10:00 +27°C° 0.3 mm 2 m/s 754 mmHg 87%
11:00 +26°C° 5.2 mm 2 m/s 754 mmHg 90%
12:00 +26°C° 5.2 mm 3 m/s 753 mmHg 94%
13:00 +25°C° 0 mm 2 m/s 753 mmHg 96%
14:00 +25°C° 0.6 mm 2 m/s 752 mmHg 95%
15:00 +25°C° 0.6 mm 2 m/s 752 mmHg 94%
16:00 +25°C° 0.6 mm 2 m/s 751 mmHg 94%
17:00 +25°C° 0 mm 2 m/s 752 mmHg 94%
18:00 +25°C° 0 mm 2 m/s 752 mmHg 95%
19:00 +25°C° 0 mm 2 m/s 753 mmHg 96%
20:00 +25°C° 0 mm 1 m/s 753 mmHg 96%
21:00 +25°C° 0 mm 1 m/s 753 mmHg 96%
22:00 +24°C° 0 mm 1 m/s 754 mmHg 96%
23:00 +24°C° 0 mm 1 m/s 753 mmHg 96%

Amanhã, 30 Setembro, Quarta-feira

Tempo Temperatura Precipitação Vento Pressão Humidade
00:00 +24°C° 0 mm 1 m/s 753 mmHg 96%
01:00 +24°C° 0 mm 1 m/s 753 mmHg 97%
02:00 +24°C° 0.1 mm 1 m/s 752 mmHg 96%
03:00 +24°C° 0.1 mm 1 m/s 752 mmHg 96%
04:00 +24°C° 0.1 mm 1 m/s 752 mmHg 96%
05:00 +25°C° 0.1 mm 1 m/s 752 mmHg 96%
06:00 +25°C° 0.1 mm 1 m/s 753 mmHg 95%
07:00 +25°C° 0.1 mm 1 m/s 753 mmHg 95%
08:00 +26°C° 0.1 mm 1 m/s 753 mmHg 91%
09:00 +27°C° 0.1 mm 2 m/s 754 mmHg 86%
10:00 +28°C° 0.1 mm 2 m/s 754 mmHg 82%
11:00 +29°C° 0.7 mm 2 m/s 753 mmHg 78%
12:00 +30°C° 0.7 mm 2 m/s 753 mmHg 75%
13:00 +31°C° 0.7 mm 2 m/s 752 mmHg 72%
14:00 +31°C° 0.3 mm 2 m/s 751 mmHg 72%
15:00 +31°C° 0.3 mm 2 m/s 750 mmHg 72%
16:00 +31°C° 0.3 mm 2 m/s 750 mmHg 72%
17:00 +30°C° 0.7 mm 2 m/s 750 mmHg 78%
18:00 +28°C° 0.7 mm 2 m/s 751 mmHg 84%
19:00 +27°C° 0.7 mm 2 m/s 751 mmHg 90%
20:00 +26°C° 0.1 mm 2 m/s 752 mmHg 91%
21:00 +26°C° 0.1 mm 2 m/s 752 mmHg 92%
22:00 +26°C° 0.1 mm 2 m/s 753 mmHg 92%
23:00 +26°C° 0.2 mm 2 m/s 753 mmHg 93%

Depois de amanhã, 1 Outubro, Quinta-feira

Tempo Temperatura Precipitação Vento Pressão Humidade
00:00 +26°C° 0.2 mm 2 m/s 752 mmHg 94%
01:00 +25°C° 0.2 mm 3 m/s 752 mmHg 94%
02:00 +25°C° 0.2 mm 2 m/s 752 mmHg 95%
03:00 +25°C° 0.2 mm 2 m/s 751 mmHg 95%
04:00 +25°C° 0.2 mm 2 m/s 751 mmHg 96%
05:00 +25°C° 0.1 mm 2 m/s 751 mmHg 96%
06:00 +25°C° 0.1 mm 2 m/s 752 mmHg 96%
07:00 +25°C° 0.1 mm 1 m/s 753 mmHg 96%
08:00 +26°C° 0.1 mm 2 m/s 753 mmHg 91%
09:00 +27°C° 0.1 mm 2 m/s 753 mmHg 85%
10:00 +29°C° 0.1 mm 3 m/s 753 mmHg 80%
11:00 +30°C° 0.5 mm 3 m/s 752 mmHg 77%
12:00 +30°C° 0.5 mm 3 m/s 751 mmHg 74%
13:00 +31°C° 0.5 mm 3 m/s 750 mmHg 71%
14:00 +31°C° 1.1 mm 3 m/s 750 mmHg 73%
15:00 +31°C° 1.1 mm 3 m/s 749 mmHg 75%
16:00 +31°C° 1.1 mm 3 m/s 749 mmHg 76%
17:00 +29°C° 1.4 mm 2 m/s 749 mmHg 80%
18:00 +28°C° 1.4 mm 2 m/s 750 mmHg 84%
19:00 +27°C° 1.4 mm 2 m/s 750 mmHg 88%
20:00 +27°C° 2.6 mm 2 m/s 751 mmHg 89%
21:00 +26°C° 2.6 mm 3 m/s 751 mmHg 90%
22:00 +26°C° 2.6 mm 3 m/s 752 mmHg 91%
23:00 +26°C° 1.4 mm 3 m/s 752 mmHg 93%

2 Outubro, Sexta-feira

Tempo Temperatura Precipitação Vento Pressão Humidade
00:00 +25°C° 1.4 mm 3 m/s 752 mmHg 94%
01:00 +25°C° 1.4 mm 3 m/s 752 mmHg 95%
02:00 +25°C° 0 mm 3 m/s 751 mmHg 96%
03:00 +25°C° 0 mm 2 m/s 751 mmHg 96%
04:00 +25°C° 0 mm 2 m/s 751 mmHg 96%
05:00 +25°C° 0.1 mm 2 m/s 751 mmHg 96%
06:00 +25°C° 0.1 mm 1 m/s 751 mmHg 96%
07:00 +25°C° 0.1 mm 1 m/s 752 mmHg 96%
08:00 +26°C° 0 mm 1 m/s 752 mmHg 92%
09:00 +27°C° 0 mm 1 m/s 753 mmHg 88%
10:00 +27°C° 0 mm 1 m/s 753 mmHg 85%
11:00 +28°C° 0 mm 2 m/s 752 mmHg 83%
12:00 +28°C° 0 mm 2 m/s 752 mmHg 82%
13:00 +28°C° 0 mm 2 m/s 751 mmHg 81%
14:00 +29°C° 0.1 mm 2 m/s 750 mmHg 80%
15:00 +29°C° 0.1 mm 2 m/s 750 mmHg 80%
16:00 +29°C° 0.1 mm 2 m/s 749 mmHg 79%
17:00 +28°C° 0.1 mm 2 m/s 750 mmHg 83%
18:00 +27°C° 0.1 mm 2 m/s 750 mmHg 86%
19:00 +26°C° 0.1 mm 2 m/s 751 mmHg 89%
20:00 +26°C° 0 mm 2 m/s 751 mmHg 90%
21:00 +26°C° 0 mm 2 m/s 752 mmHg 90%
22:00 +25°C° 0 mm 2 m/s 752 mmHg 91%
23:00 +25°C° 0 mm 2 m/s 752 mmHg 92%

3 Outubro, Sábado

Tempo Temperatura Precipitação Vento Pressão Humidade
00:00 +25°C° 0 mm 2 m/s 752 mmHg 93%
01:00 +25°C° 0 mm 2 m/s 751 mmHg 95%
02:00 +25°C° 0 mm 2 m/s 751 mmHg 95%
03:00 +24°C° 0 mm 2 m/s 751 mmHg 96%
04:00 +24°C° 0 mm 1 m/s 751 mmHg 97%
05:00 +24°C° 0 mm 1 m/s 752 mmHg 96%
06:00 +25°C° 0 mm 1 m/s 752 mmHg 95%
07:00 +25°C° 0 mm 1 m/s 752 mmHg 95%
08:00 +26°C° 0 mm 1 m/s 753 mmHg 90%
09:00 +27°C° 0 mm 1 m/s 753 mmHg 85%
10:00 +28°C° 0 mm 1 m/s 754 mmHg 80%
11:00 +29°C° 1.3 mm 1 m/s 753 mmHg 79%
12:00 +29°C° 1.3 mm 1 m/s 752 mmHg 77%
13:00 +30°C° 1.3 mm 1 m/s 751 mmHg 76%
14:00 +30°C° 1.9 mm 1 m/s 751 mmHg 76%
15:00 +30°C° 1.9 mm 1 m/s 750 mmHg 75%
16:00 +30°C° 1.9 mm 1 m/s 750 mmHg 75%
17:00 +29°C° 0.9 mm 1 m/s 751 mmHg 79%
18:00 +28°C° 0.9 mm 1 m/s 751 mmHg 83%
19:00 +27°C° 0.9 mm 1 m/s 751 mmHg 88%
20:00 +27°C° 0.6 mm 1 m/s 752 mmHg 89%
21:00 +26°C° 0.6 mm 2 m/s 752 mmHg 89%
22:00 +26°C° 0.6 mm 2 m/s 753 mmHg 90%
23:00 +26°C° 0 mm 2 m/s 752 mmHg 92%

4 Outubro, Domingo

Tempo Temperatura Precipitação Vento Pressão Humidade
00:00 +25°C° 0 mm 2 m/s 752 mmHg 93%
01:00 +25°C° 0 mm 2 m/s 752 mmHg 94%
02:00 +25°C° 0 mm 2 m/s 752 mmHg 95%
03:00 +25°C° 0 mm 2 m/s 751 mmHg 96%
04:00 +25°C° 0 mm 2 m/s 751 mmHg 97%
05:00 +25°C° 0 mm 2 m/s 752 mmHg 96%
06:00 +25°C° 0 mm 2 m/s 752 mmHg 96%
07:00 +25°C° 0 mm 1 m/s 752 mmHg 96%
08:00 +26°C° 0.1 mm 1 m/s 753 mmHg 94%
09:00 +26°C° 0.1 mm 2 m/s 754 mmHg 91%
10:00 +27°C° 0.1 mm 2 m/s 754 mmHg 89%
11:00 +28°C° 0.1 mm 2 m/s 754 mmHg 86%
12:00 +28°C° 0.1 mm 2 m/s 753 mmHg 82%
13:00 +29°C° 0.1 mm 2 m/s 752 mmHg 79%
14:00 +30°C° 0 mm 2 m/s 751 mmHg 75%
15:00 +31°C° 0 mm 1 m/s 751 mmHg 71%
16:00 +32°C° 0 mm 1 m/s 750 mmHg 67%
17:00 +30°C° 0.1 mm 1 m/s 751 mmHg 72%
18:00 +27°C° 0.1 mm 0 m/s 751 mmHg 76%
19:00 +26°C° 0.1 mm 0 m/s 751 mmHg 80%
20:00 +28°C° 0.2 mm 1 m/s 752 mmHg 82%
21:00 +27°C° 0.2 mm 1 m/s 752 mmHg 84%
22:00 +27°C° 0.2 mm 2 m/s 753 mmHg 87%
23:00 +26°C° 0.4 mm 2 m/s 753 mmHg 89%
Mostrar mais